Wind_Speed
15 16 16 13 12 12 14 14 14 15 16 15 16 17 17 17 18 18 18 18 18 18 18 17 16 15 14 13 12 11 11 12
20 20 18 17 17 16 15 15 14 14 13 14 15 16 18 18 19 19 19 20 21 22 22 21 21 20 19 18 16 15 14 15
24 25 23 22 22 20 21 20 19 17 17 17 17 18 19 18 18 18 19 22 23 25 25 25 25 26 24 22 22 20 19 19
24 24 25 25 25 25 25 23 24 24 21 20 20 21 21 22 23 24 24 24 24 27 28 28 30 30 28 27 27 25 25 22
25 24 25 25 27 28 29 29 30 26 25 24 24 25 27 28 28 29 29 28 27 26 28 31 32 33 32 31 31 30 29 27
28 27 27 28 29 30 32 33 34 34 32 31 32 28 20 22 28 30 31 27 27 26 26 29 32 35 36 35 35 34 33 33
27 28 29 29 30 32 34 35 35 35 35 35 35 32 27 29 30 32 32 28 29 26 27 30 31 34 33 34 38 38 37 37
26 27 27 27 28 30 31 33 35 38 37 35 36 39 39 39 37 39 38 32 31 32 34 33 33 35 36 37 38 39 39 40
26 25 25 26 26 26 27 30 33 35 38 39 40 42 43 44 43 44 42 38 35 36 37 38 38 39 39 40 40 39 42 44
24 25 25 25 25 26 27 28 29 30 32 36 40 42 44 45 45 45 43 39 39 37 37 38 39 42 44 43 39 41 42 48
20 22 23 25 26 27 27 28 30 32 33 35 36 39 41 42 42 43 44 43 40 40 37 38 37 39 42 40 39 39 36 37
20 21 22 23 25 26 27 29 30 32 34 36 38 39 40 40 38 42 35 44 42 43 40 38 36 38 37 36 34 33 32 33
21 22 23 24 23 25 28 30 30 32 35 35 38 40 40 38 38 38 45 39 34 43 42 41 39 39 39 38 35 35 33 29
22 22 22 23 22 23 24 28 29 30 31 33 36 38 39 39 40 41 39 38 43 38 39 41 42 42 42 41 40 39 36 31
21 20 19 20 21 21 22 24 26 27 29 31 32 33 35 37 39 40 41 41 39 36 40 38 40 41 42 41 42 41 40 37
17 15 16 17 18 20 21 22 24 27 28 28 29 31 31 31 35 36 36 38 40 42 38 41 42 40 42 42 41 41 38 41
17 15 16 17 18 20 21 22 23 23 25 27 29 29 29 30 33 37 37 38 38 37 42 44 41 42 39 38 35 32 34 35
20 17 18 20 21 22 23 24 25 25 26 25 26 27 26 26 28 30 33 36 39 39 38 39 40 40 37 37 34 33 35 39
19 19 21 23 23 22 23 24 24 26 27 26 25 26 26 26 26 26 26 28 27 28 32 34 42 44 44 43 44 43 45 46
20 21 22 23 24 24 26 27 28 28 28 27 26 26 26 26 27 27 26 24 24 25 28 34 36 41 46 49 51 48 45 46
Wind_Direction
242 252 257 263 266 275 278 274 279 282 283 283 281 280 277 272 268 267 269 270 269 268 265 260 260 259 254 252 255 256 253 255
252 257 260 264 270 272 270 275 272 268 268 276 286 287 281 277 277 274 269 264 265 267 268 265 261 261 261 259 254 252 254 258
259 262 263 263 262 264 268 266 263 264 268 276 286 290 287 281 276 271 266 264 263 262 263 265 265 260 259 260 261 259 250 249
267 267 265 264 264 261 263 270 279 275 266 267 271 273 274 275 277 278 278 272 267 263 261 260 260 261 261 261 262 261 257 252
272 267 263 260 261 262 264 268 272 272 273 280 271 273 267 270 270 272 272 269 271 267 264 261 261 262 262 260 261 262 261 257
279 275 270 265 259 262 266 270 274 275 272 274 279 278 261 278 282 275 275 272 273 265 265 268 265 266 264 263 261 260 261 261
279 278 277 274 269 265 263 265 268 269 272 273 275 266 264 264 271 276 269 268 269 264 265 268 261 263 262 263 266 267 265 263
283 282 280 277 276 274 271 266 264 265 264 262 262 265 262 265 269 272 266 269 268 270 272 264 265 261 260 255 251 254 258 255
288 287 285 284 283 279 274 271 270 267 264 262 258 257 263 266 265 266 266 270 272 270 268 270 272 271 267 259 258 257 254 256
288 291 292 290 288 286 285 283 279 275 272 268 263 261 261 262 263 264 265 266 269 273 273 272 273 271 269 268 267 267 266 266
289 289 290 289 289 289 287 285 284 282 279 276 272 267 264 266 261 260 263 264 266 269 271 271 268 265 263 266 268 268 277 284
296 294 293 290 290 288 286 285 285 282 281 281 281 278 273 269 261 268 274 261 262 266 267 266 267 263 262 261 266 272 279 279
296 293 294 292 291 291 288 287 284 284 283 282 280 278 279 279 275 270 261 263 271 260 264 265 266 265 263 265 270 273 278 281
297 299 298 299 299 296 294 293 292 288 287 285 284 282 280 278 278 274 271 273 278 272 267 262 262 264 265 268 267 269 274 281
301 304 307 309 312 311 309 307 304 302 300 296 290 285 282 277 274 272 271 271 275 279 271 272 265 263 267 268 271 272 274 275
300 310 311 311 311 311 309 308 307 307 306 308 305 300 293 284 279 276 275 272 269 267 272 268 272 264 262 265 267 271 274 275
302 308 310 312 311 310 311 311 310 310 308 308 306 306 304 298 287 279 277 277 271 270 267 269 268 264 262 261 261 267 277 282
300 307 307 306 306 306 308 311 313 314 312 309 304 302 301 301 299 298 294 285 276 272 268 266 265 264 263 263 265 265 266 274
293 302 303 305 305 309 313 315 317 318 315 313 307 302 299 296 298 297 299 292 288 276 274 275 269 262 260 261 264 270 276 277
289 295 301 304 308 314 316 317 319 319 317 315 313 310 306 298 293 295 295 290 285 287 282 285 282 270 263 260 259 265 268 274
Height
3172 3172 3172 3173 3173 3173 3173 3173 3173 3173 3173 3173 3172 3172 3172 3173 3173 3173 3173 3173 3173 3172 3172 3172 3172 3172 3171 3171 3171 3170 3169 3167
3170 3170 3170 3170 3170 3170 3170 3170 3170 3169 3169 3169 3170 3170 3170 3169 3170 3170 3169 3169 3168 3168 3168 3168 3168 3168 3168 3168 3167 3167 3167 3166
3166 3166 3167 3166 3166 3166 3165 3165 3165 3165 3166 3167 3167 3167 3167 3166 3166 3165 3164 3164 3163 3163 3163 3163 3163 3163 3163 3163 3164 3164 3163 3163
3163 3163 3162 3162 3162 3161 3161 3161 3161 3160 3160 3161 3162 3162 3163 3163 3163 3162 3161 3159 3158 3157 3157 3157 3157 3156 3158 3159 3158 3160 3159 3160
3158 3158 3157 3157 3156 3156 3155 3154 3155 3156 3156 3155 3154 3154 3155 3157 3157 3157 3156 3154 3152 3152 3152 3152 3151 3150 3152 3152 3152 3153 3154 3155
3150 3151 3150 3150 3150 3149 3149 3148 3147 3148 3149 3149 3150 3150 3149 3149 3151 3151 3150 3148 3147 3146 3145 3146 3146 3145 3146 3146 3145 3146 3147 3148
3145 3144 3144 3143 3143 3142 3142 3141 3140 3140 3140 3141 3141 3142 3143 3143 3143 3143 3142 3140 3139 3139 3138 3138 3137 3136 3134 3137 3138 3139 3140 3142
3138 3137 3137 3137 3137 3136 3135 3133 3133 3132 3133 3133 3134 3135 3135 3135 3136 3135 3134 3134 3134 3133 3131 3130 3130 3129 3129 3127 3126 3124 3126 3125
3131 3130 3130 3129 3129 3129 3128 3128 3128 3126 3125 3125 3125 3125 3125 3125 3126 3123 3125 3126 3125 3123 3122 3123 3123 3122 3121 3120 3120 3119 3118 3115
3126 3125 3124 3123 3122 3122 3121 3121 3121 3120 3119 3119 3118 3118 3117 3117 3117 3116 3116 3117 3116 3117 3116 3116 3116 3114 3112 3112 3113 3113 3112 3111
3121 3120 3118 3117 3116 3115 3114 3113 3112 3111 3110 3110 3109 3109 3108 3107 3106 3105 3106 3107 3106 3105 3106 3106 3106 3105 3103 3103 3104 3106 3105 3105
3116 3115 3114 3112 3110 3109 3109 3107 3105 3104 3103 3101 3101 3100 3098 3097 3096 3096 3096 3096 3097 3096 3097 3097 3097 3095 3096 3095 3096 3098 3098 3100
3110 3109 3108 3107 3106 3104 3102 3100 3099 3097 3096 3096 3094 3092 3090 3089 3088 3088 3088 3088 3086 3088 3088 3088 3088 3087 3087 3087 3087 3089 3089 3092
3106 3104 3102 3101 3100 3098 3097 3095 3093 3090 3090 3088 3085 3085 3084 3083 3081 3080 3080 3078 3078 3078 3079 3080 3079 3078 3077 3078 3078 3080 3081 3084
3100 3099 3097 3095 3094 3092 3091 3089 3087 3085 3082 3079 3078 3077 3076 3074 3072 3071 3071 3070 3070 3069 3070 3069 3071 3071 3069 3069 3069 3068 3070 3075
3096 3095 3093 3092 3090 3089 3087 3086 3083 3081 3077 3075 3071 3069 3068 3067 3065 3063 3062 3061 3060 3060 3060 3061 3061 3061 3061 3060 3060 3060 3060 3063
3092 3092 3090 3089 3087 3086 3084 3081 3079 3077 3074 3071 3067 3064 3061 3058 3057 3055 3054 3053 3051 3050 3050 3050 3050 3051 3050 3049 3051 3052 3049 3049
3087 3087 3086 3085 3084 3082 3080 3077 3074 3071 3068 3065 3063 3059 3056 3052 3049 3046 3043 3042 3042 3042 3040 3040 3040 3040 3039 3039 3039 3041 3042 3042
3084 3083 3081 3080 3078 3076 3073 3070 3068 3066 3063 3060 3057 3053 3049 3046 3043 3040 3037 3034 3032 3031 3031 3029 3028 3028 3029 3029 3029 3028 3028 3029
3080 3080 3078 3075 3073 3070 3067 3065 3062 3059 3057 3054 3051 3046 3042 3039 3036 3033 3030 3027 3026 3024 3021 3019 3016 3015 3015 3017 3018 3019 3018 3018